{"data":{"norad_id":64451,"epoch":"2026-09-20T05:39:50.391360Z","epoch_age_seconds":153994,"freshness":"FRESH","line1":"1 64451U 25130P   26263.23599990  .00009257  00000+0  28485-3 0  9998","line2":"2 64451  53.1570 263.1392 0001116  89.8246 270.2885 15.34390452 70516","mean_motion":15.34390452,"eccentricity":0.0001116,"inclination_deg":53.157,"raan_deg":263.1392,"arg_perigee_deg":89.8246,"mean_anomaly_deg":270.2885,"bstar":0.00028485,"rev_number":7051,"period_min":93.848342064631,"perigee_km":461.96817808453,"apogee_km":463.4950599603,"semimajor_km":6840.8686190224,"source":"CELESTRAK","updated_at":"2026-09-21T09:00:35.354775Z"}}